Location: Bjelajci
(45.0103°N, 16.1758°E)
Time: 09:36:11
(UTC+00:00)

Cosmos 1703 Rocket - Pass Details

Date: 14 July 2020
Orbit: 605 x 634 km, 82.5° (Epoch: 08 August)

Event Time Altitude Azimuth Distance (km) Brightness Sun altitude
Rises 00:30:32 0° 347° (NNW) 2,932 7.9 -20.3°
Reaches altitude 10° 00:32:49 10° 344° (NNW) 2,016 6.9 -20.2°
Maximum altitude 00:37:12 58° 265° (W) 729 3.7 -19.9°
Enters shadow 00:38:05 48° 219° (SW) 821 3.7 -19.8°
